Ord, NE

7:35 AM CDT on March 25, 2017 (GMT -0500)
Sharp

Weather History for KODX - September, 2013

Change the Weather History Date:

Sunday, September 8, 2013

  Actual Average Record
Temperature  
Mean Temperature 81 °F 67 °F  
Max Temperature 94 °F 81 °F 94 °F (2013)
Min Temperature 67 °F 53 °F 36 °F (2012)
Degree Days  
Heating Degree Days 0 2  
Month to date heating degree days 0 11  
Since 1 July heating degree days 7 25  
Cooling Degree Days 16 4  
Month to date cooling degree days 85 40  
Year to date cooling degree days 845 797  
Growing Degree Days 30 (Base 50)    
Moisture  
Dew Point 68 °F    
Average Humidity 68    
Maximum Humidity 100    
Minimum Humidity 36    
Precipitation  
Precipitation 0.00 in 0.09 in 1.95 in (1930)
Month to date precipitation 0.11 0.72  
Year to date precipitation 19.54 19.63  
Sea Level Pressure  
Sea Level Pressure 29.89 in    
Wind  
Wind Speed 7 mph (ESE)    
Max Wind Speed 14 mph    
Max Gust Speed 22 mph    
Visibility 4 miles    
Events Fog    
T = Trace of Precipitation, MM = Missing Value Source: NWS Daily Summary

Daily Weather History Graph

Daily Weather History Graph

Search for Another Location

Airport or City:

Trip Planner

Search our weather history database for the weather conditions in past years. The results will help you decide how hot, cold, wet, or windy it might be!

Date:

Astronomy

Sep. 08, 2013 Rise Set
Actual Time 7:09 AM CDT 7:56 PM CDT
Civil Twilight 6:41 AM CDT 8:24 PM CDT
Nautical Twilight 6:07 AM CDT 8:58 PM CDT
Astronomical Twilight 5:33 AM CDT 9:32 PM CDT
Moon 10:31 AM CDT (9/8) 9:29 PM CDT (9/8)
Length of Visible Light 13h 43m
Length of Day
12h 47m
Waxing Crescent, 11% of the Moon is Illuminated
Sep 8
Waxing Crescent
Sep 12
First Quarter
Sep 19
Full
Sep 26
Last Quarter
Oct 4
New

Hourly Weather History & Observations

Time (CDT) Temp. Heat Index Dew Point Humidity Pressure Visibility Wind Dir Wind Speed Gust Speed Precip Events Conditions
12:34 AM 71.6 °F - 69.8 °F 94% 29.96 in 4.0 mi East 3.5 mph - N/A   Scattered Clouds
12:53 AM 70.0 °F - 68.0 °F 93% 29.93 in 3.0 mi Calm Calm - N/A   Partly Cloudy
1:03 AM 69.8 °F - 68.0 °F 94% 29.96 in 2.0 mi Calm Calm - N/A   Scattered Clouds
1:10 AM 69.8 °F - 69.8 °F 100% 29.97 in 2.5 mi Calm Calm - N/A   Mostly Cloudy
1:20 AM 69.8 °F - 69.8 °F 100% 29.96 in 3.0 mi Calm Calm - N/A   Overcast
1:53 AM 72.0 °F - 70.0 °F 93% 29.92 in 3.0 mi East 4.6 mph - N/A   Overcast
2:28 AM 71.6 °F - 69.8 °F 94% 29.96 in 3.0 mi ESE 5.8 mph - N/A   Overcast
2:42 AM 71.6 °F - 69.8 °F 94% 29.95 in 2.5 mi ESE 5.8 mph - N/A   Overcast
2:53 AM 72.0 °F - 70.0 °F 93% 29.91 in 2.5 mi ESE 4.6 mph - N/A   Overcast
3:08 AM 71.6 °F - 69.8 °F 94% 29.95 in 3.0 mi ESE 9.2 mph - N/A   Overcast
3:29 AM 71.6 °F - 69.8 °F 94% 29.95 in 3.0 mi ESE 4.6 mph - N/A   Scattered Clouds
3:53 AM 71.1 °F - 69.1 °F 93% 29.90 in 3.0 mi SE 4.6 mph - N/A   Clear
4:38 AM 69.8 °F - 68.0 °F 94% 29.93 in 2.5 mi Calm Calm - N/A   Clear
4:53 AM 69.1 °F - 68.0 °F 96% 29.89 in 2.5 mi SE 3.5 mph - N/A   Clear
5:26 AM 69.8 °F - 68.0 °F 94% 29.92 in 1.8 mi Calm Calm - N/A   Partly Cloudy
5:40 AM 69.8 °F - 66.2 °F 88% 29.92 in 2.0 mi Calm Calm - N/A   Partly Cloudy
5:43 AM 68.0 °F - 66.2 °F 94% 29.92 in 1.0 mi Calm Calm - N/A   Mist
5:50 AM 68.0 °F - 66.2 °F 94% 29.92 in 0.8 mi Calm Calm - N/A   Mist
5:53 AM 68.0 °F - 66.9 °F 96% 29.88 in 1.2 mi Calm Calm - N/A   Scattered Clouds
6:03 AM 66.2 °F - 66.2 °F 100% 29.92 in 1.2 mi Calm Calm - N/A   Mostly Cloudy
6:07 AM 66.2 °F - 66.2 °F 100% 29.92 in 0.8 mi Calm Calm - N/A   Mostly Cloudy
6:24 AM 66.2 °F - 66.2 °F 100% 29.92 in 0.2 mi Calm Calm - N/A Fog Fog
6:53 AM 68.0 °F - 68.0 °F 100% 29.89 in 0.2 mi Calm Calm - N/A Fog Fog
7:14 AM 68.0 °F - 66.2 °F 94% 29.92 in 0.5 mi Variable 4.6 mph - N/A Fog Fog
7:53 AM 68.0 °F - 68.0 °F 100% 29.89 in 0.2 mi South 4.6 mph - N/A Fog Fog
8:07 AM 69.8 °F - 68.0 °F 94% 29.92 in 0.2 mi SSE 5.8 mph - N/A Fog Fog
8:33 AM 68.0 °F - 68.0 °F 100% 29.93 in 0.2 mi Calm Calm - N/A Fog Fog
8:53 AM 69.1 °F - 68.0 °F 96% 29.91 in 0.2 mi NNE 8.1 mph - N/A Fog Fog
9:12 AM 69.8 °F - 68.0 °F 94% 29.94 in 0.2 mi North 3.5 mph - N/A Fog Fog
9:36 AM 69.8 °F - 68.0 °F 94% 29.93 in 1.2 mi NE 3.5 mph - N/A   Overcast
9:53 AM 69.1 °F - 68.0 °F 96% 29.91 in 2.0 mi NE 3.5 mph - N/A   Overcast
10:01 AM 69.8 °F - 68.0 °F 94% 29.94 in 2.5 mi Calm Calm - N/A   Overcast
10:14 AM 71.6 °F - 69.8 °F 94% 29.94 in 3.0 mi ENE 4.6 mph - N/A   Overcast
10:53 AM 73.9 °F - 68.0 °F 82% 29.90 in 4.0 mi East 5.8 mph - N/A   Haze
11:21 AM 75.2 °F - 68.0 °F 78% 29.93 in 5.0 mi East 5.8 mph - N/A   Haze
11:34 AM 77.0 °F - 68.0 °F 74% 29.92 in 5.0 mi East 6.9 mph - N/A   Haze
11:53 AM 78.1 °F - 69.1 °F 74% 29.88 in 5.0 mi SE 8.1 mph - N/A   Haze
12:53 PM 82.9 °F 86.5 °F 69.1 °F 63% 29.86 in 8.0 mi East 10.4 mph - N/A   Clear
1:53 PM 88.0 °F 92.1 °F 69.1 °F 53% 29.84 in 10.0 mi ESE 9.2 mph - N/A   Clear
2:53 PM 91.9 °F 97.4 °F 70.0 °F 48% 29.82 in 10.0 mi East 9.2 mph - N/A   Clear
3:53 PM 91.9 °F 96.9 °F 69.1 °F 47% 29.80 in 10.0 mi ESE 10.4 mph - N/A   Clear
4:53 PM 93.9 °F 95.2 °F 63.0 °F 36% 29.77 in 10.0 mi SE 11.5 mph - N/A   Clear
5:53 PM 91.9 °F 97.4 °F 70.0 °F 48% 29.76 in 10.0 mi ESE 8.1 mph - N/A   Clear
6:53 PM 89.1 °F 92.1 °F 66.9 °F 48% 29.75 in 10.0 mi ESE 11.5 mph - N/A   Clear
7:53 PM 84.9 °F 89.4 °F 70.0 °F 61% 29.75 in 10.0 mi ESE 11.5 mph - N/A   Clear
8:53 PM 82.0 °F 85.9 °F 70.0 °F 67% 29.74 in 10.0 mi ESE 9.2 mph - N/A   Clear
9:53 PM 82.0 °F 85.9 °F 70.0 °F 67% 29.75 in 10.0 mi SE 11.5 mph 21.9 mph N/A   Clear
10:53 PM 80.1 °F 82.7 °F 68.0 °F 67% 29.75 in 10.0 mi SSE 6.9 mph - N/A   Clear
11:53 PM 77.0 °F - 62.1 °F 60% 29.76 in 10.0 mi SSW 3.5 mph - N/A   Clear